Wind_Speed
2 3 9 9 7 13 16 12 13 13 12 12 11 7 6 3 6 3 6 5 4 4 5 6 5 6 5 4 4 5 6 8 8 9 9 8 8 7 8 7 6 5 4 4 4 5 6 7 8
5 4 6 6 3 19 15 11 12 12 13 12 12 11 9 4 4 4 7 7 4 6 5 5 4 5 7 8 7 7 6 8 8 8 8 8 9 9 7 6 5 4 3 4 5 6 8 9 10
6 6 4 4 4 16 14 10 10 8 10 8 8 6 7 8 6 7 5 5 2 6 7 5 4 4 6 7 8 7 8 8 9 10 10 11 10 8 7 6 4 4 4 5 7 8 10 12 13
7 6 6 3 9 9 10 8 8 6 6 7 7 7 7 10 11 8 4 3 3 5 6 4 3 5 8 10 9 9 9 10 10 11 11 10 8 7 7 5 4 4 6 8 9 11 11 11 12
9 5 4 7 11 7 6 5 6 5 5 6 6 9 7 8 10 8 6 4 3 4 4 2 5 6 9 10 9 10 10 11 11 11 10 9 9 8 6 5 6 8 10 10 10 10 10 11 13
3 5 7 15 10 5 5 5 7 5 4 5 6 7 9 9 11 9 6 3 2 2 3 6 7 6 8 9 8 10 11 11 12 12 12 12 10 9 9 9 10 11 11 11 13 14 15 15 16
4 3 10 9 9 5 2 4 6 5 6 4 3 3 7 13 12 9 7 3 3 3 2 7 7 6 9 10 10 11 13 13 14 13 13 13 12 12 12 12 14 14 14 15 17 18 19 20 21
5 8 9 6 6 8 3 5 9 11 6 5 4 2 5 10 8 8 8 5 4 6 6 7 8 12 11 11 14 13 15 16 16 16 16 16 14 15 15 16 17 18 19 20 22 23 24 26 26
9 5 7 6 4 5 5 3 6 9 7 6 6 5 9 13 8 4 5 2 3 4 9 10 12 11 9 10 15 15 16 16 16 17 18 19 19 19 19 20 21 22 23 25 26 28 29 29 31
6 4 4 6 3 5 4 7 5 5 7 6 5 9 11 9 7 4 2 2 4 7 9 11 11 10 8 14 17 18 23 15 17 19 19 22 22 23 23 24 26 26 28 31 32 33 32 32 33
5 7 7 5 6 5 2 6 7 4 7 8 6 12 9 6 1 4 7 9 9 8 10 12 12 10 13 15 15 20 11 14 19 20 23 25 26 27 27 29 31 31 32 33 34 34 34 37 37
6 7 8 8 5 7 6 6 9 9 8 9 11 13 10 5 6 5 7 12 13 11 12 12 12 13 12 13 19 20 18 19 22 25 25 28 28 31 31 32 33 33 35 36 37 33 34 33 34
4 4 3 4 5 7 9 10 8 8 7 10 15 13 11 8 8 9 12 15 13 6 8 11 10 13 13 14 16 17 20 23 24 27 29 30 31 35 34 37 36 37 40 42 37 35 34 29 33
2 3 4 5 6 8 9 9 8 11 12 13 13 13 12 13 12 13 15 16 10 6 8 9 12 14 15 16 18 21 24 28 28 30 31 32 35 36 38 39 39 44 45 44 38 30 30 32 33
3 7 10 5 4 3 1 4 7 12 9 12 10 13 17 16 14 14 11 8 7 8 10 9 16 20 20 19 18 22 28 26 33 36 35 36 37 39 43 43 43 39 39 30 33 33 32 32 30
6 3 2 1 2 3 2 5 11 11 10 13 14 14 14 18 10 8 5 3 1 5 13 15 18 17 18 20 21 22 28 31 27 32 35 39 39 40 43 38 35 27 33 30 31 28 29 25 28
3 5 7 5 3 1 3 6 11 11 9 11 14 17 13 7 6 5 3 3 10 12 22 23 24 26 25 25 29 28 30 28 35 31 31 30 27 37 29 22 24 22 29 27 26 32 35 34 33
9 6 5 3 3 2 5 6 5 7 6 8 9 6 6 6 6 6 7 11 16 21 23 24 27 26 28 28 32 33 31 30 31 35 36 36 39 43 42 41 48 33 29 29 33 32 32 28 31
5 5 8 4 1 3 3 1 1 1 4 4 10 7 6 8 9 10 12 12 17 20 23 24 25 26 28 30 32 34 35 37 34 34 35 39 39 40 39 40 38 27 27 25 28 30 37 38 33
6 6 3 4 3 2 6 7 5 6 7 10 11 7 6 8 12 9 11 13 15 20 22 22 23 27 30 31 35 37 36 37 37 39 39 40 37 37 37 37 33 27 19 21 25 25 29 28 24
4 6 0 3 3 2 4 8 8 10 11 12 10 8 9 10 9 12 14 11 13 16 19 21 22 25 29 32 32 33 32 31 29 31 31 33 33 31 31 24 22 18 16 14 19 21 23 22 23
3 5 2 9 4 9 9 8 10 14 14 11 9 10 9 7 10 17 12 15 16 17 21 24 27 28 30 29 28 28 28 28 30 30 31 30 32 29 23 21 18 17 13 12 16 16 16 13 10
4 8 5 7 10 9 11 8 5 8 15 12 12 11 10 11 10 10 14 13 16 19 24 28 29 29 30 29 27 27 28 28 28 29 30 29 27 27 18 20 18 16 12 10 12 14 13 10 13
10 6 7 8 10 17 4 5 8 4 6 9 13 11 13 14 9 13 18 14 18 24 29 30 27 35 34 32 30 29 27 24 24 25 25 24 23 20 16 18 15 12 9 11 12 14 14 13 14
7 12 20 12 8 7 4 8 5 3 9 4 9 14 16 14 11 15 10 15 24 29 29 31 35 40 38 33 30 28 23 18 19 19 21 21 20 16 17 16 13 10 9 10 10 11 11 15 10
8 13 12 13 11 16 5 4 6 10 8 5 9 14 15 17 12 15 16 24 25 24 29 31 39 39 35 30 26 23 19 17 18 19 21 19 16 15 15 13 12 11 11 11 10 10 11 7 8
13 11 11 13 15 13 2 6 9 14 11 8 10 10 12 15 19 20 22 26 36 26 39 40 41 33 29 21 20 19 19 20 21 19 17 17 16 15 12 13 13 11 10 10 11 12 11 9 9
9 9 11 10 7 9 1 5 7 12 12 8 8 10 15 19 21 24 24 31 27 37 38 42 33 33 26 19 19 21 19 21 20 20 17 14 11 14 14 14 12 11 10 10 11 11 8 8 9
11 9 7 5 4 7 7 5 8 9 10 7 9 12 14 18 22 26 29 28 35 33 33 33 32 27 20 20 19 20 25 23 20 16 16 10 9 10 12 12 10 9 9 8 7 5 4 1 2
9 6 5 7 4 5 7 3 8 7 7 7 9 12 15 19 25 27 27 31 35 32 26 25 24 16 18 17 23 24 20 20 21 17 14 10 6 5 8 9 8 7 10 8 5 3 3 3 5
Wind_Direction
235 31 57 83 107 103 88 83 73 69 67 70 83 87 122 95 42 69 100 116 190 167 184 177 176 175 189 208 215 216 218 225 236 244 249 251 251 248 245 250 253 252 262 273 280 290 298 305 307
202 126 79 102 241 97 84 90 88 86 72 70 67 67 80 70 85 85 104 96 151 142 139 149 178 200 199 210 207 216 233 243 244 244 245 245 243 246 249 246 244 247 255 278 297 301 299 296 297
167 141 97 123 67 85 101 100 101 87 71 72 51 60 73 98 96 108 89 81 93 131 120 146 173 214 231 217 230 239 242 241 244 245 238 235 237 233 226 224 221 239 263 274 278 287 295 299 300
157 130 107 200 108 112 107 116 121 118 73 69 77 31 70 94 114 108 93 102 125 127 118 162 184 226 235 239 226 235 242 240 237 237 239 238 231 224 226 227 240 265 279 289 294 294 293 296 301
130 137 153 137 109 110 127 152 140 114 95 74 58 72 72 97 100 98 106 118 119 123 151 224 233 237 252 253 244 239 231 231 234 227 220 216 225 233 234 243 257 267 272 274 279 281 285 294 300
116 138 174 126 112 101 118 142 157 147 120 73 69 60 78 86 95 87 75 111 133 169 210 250 255 253 267 254 242 246 232 223 220 221 222 223 226 221 227 240 251 262 265 274 282 284 285 289 295
122 121 119 117 119 72 65 109 140 146 128 138 107 71 78 102 98 103 103 104 206 229 250 278 274 279 276 238 229 232 231 224 227 233 239 239 228 230 242 252 260 262 266 271 273 277 283 288 296
94 108 131 110 91 69 73 120 144 158 200 154 160 121 96 143 115 123 127 152 189 216 242 276 260 289 261 231 230 238 233 231 234 244 249 241 235 242 250 258 264 266 269 273 277 281 285 289 296
102 129 111 87 69 82 94 114 186 198 194 175 181 131 134 145 182 171 126 102 220 242 264 286 300 297 246 236 230 234 236 241 249 250 251 243 245 249 253 260 264 269 273 278 282 284 285 291 292
90 70 84 138 96 113 128 137 168 163 198 184 177 162 157 162 214 280 288 298 301 278 281 291 304 311 273 257 245 256 233 246 264 265 258 253 254 258 264 270 273 275 278 280 282 283 285 290 298
111 115 124 143 160 158 234 200 165 182 191 185 173 170 166 162 173 259 288 305 305 299 296 298 300 288 276 267 262 260 280 262 266 260 258 256 260 264 267 272 273 273 275 281 282 286 292 299 302
72 80 117 122 149 194 225 240 225 210 201 190 178 177 179 197 245 267 281 287 294 294 299 308 303 296 294 256 261 280 271 271 268 267 262 259 261 263 264 266 269 274 276 275 277 286 295 300 302
93 97 124 127 157 194 225 226 241 196 187 176 170 182 202 228 253 274 275 278 286 284 282 283 284 275 267 270 283 291 279 269 264 264 264 263 264 266 270 273 275 273 274 277 280 291 292 294 309
130 155 141 149 177 206 217 231 229 170 158 183 186 196 224 245 255 263 274 283 283 271 266 277 281 277 275 274 277 280 289 286 275 269 270 268 268 271 273 275 277 284 280 274 279 282 296 296 298
39 112 97 110 135 158 117 202 185 160 182 204 223 245 256 243 262 274 276 278 272 260 267 297 286 279 274 273 281 290 283 278 277 269 266 268 270 274 275 274 271 274 272 262 272 285 296 298 298
133 150 167 119 128 264 229 225 172 183 205 226 243 259 270 262 258 256 263 261 273 285 277 293 292 285 293 278 294 290 295 286 287 271 271 270 272 278 283 268 275 274 281 285 294 302 308 275 297
191 109 130 71 150 245 261 259 212 214 228 248 256 264 266 235 184 159 155 298 303 281 284 297 287 294 292 294 291 300 287 283 282 283 283 281 283 273 280 276 281 285 297 305 298 282 290 286 278
122 125 110 141 31 138 267 262 255 242 271 275 262 217 179 187 207 215 261 280 294 288 287 284 285 297 298 297 303 299 305 296 284 288 289 285 283 285 284 294 295 290 283 292 295 285 276 275 282
88 109 116 107 99 39 170 267 106 156 188 198 180 188 207 224 228 262 279 304 302 303 297 293 294 297 300 299 298 304 304 302 297 293 292 294 295 291 292 295 296 298 296 290 292 284 279 283 289
62 76 101 354 269 226 193 190 217 170 190 188 201 223 251 249 250 274 303 301 305 298 296 297 302 304 306 307 301 301 300 302 301 301 302 296 295 294 294 296 298 301 290 286 285 283 284 289 291
5 357 327 314 285 211 204 247 223 243 224 209 221 255 275 273 277 305 313 315 308 309 306 303 306 309 307 307 305 303 304 303 300 299 297 298 298 300 300 302 303 302 292 286 277 283 288 290 293
331 360 300 309 223 322 219 325 217 253 239 227 251 267 282 275 298 306 294 308 310 311 308 309 309 307 307 311 309 308 306 306 305 303 300 302 301 301 302 301 301 301 291 268 271 277 288 291 290
341 333 293 245 262 289 219 275 110 196 254 264 260 280 275 276 297 288 294 311 314 307 305 309 311 318 322 319 314 312 307 305 304 304 305 308 308 309 312 308 316 305 300 269 267 271 278 279 285
338 344 293 239 261 258 87 302 52 355 275 268 261 258 258 282 287 297 305 312 314 313 320 319 320 330 328 327 323 318 313 314 311 311 310 309 311 309 305 302 308 301 287 264 258 260 268 278 271
340 316 314 286 278 333 44 300 33 241 293 269 274 276 266 264 263 325 336 336 326 324 328 328 325 330 328 326 322 319 321 315 314 314 312 318 319 315 289 289 296 289 290 271 266 265 267 268 283
310 328 322 311 320 322 281 345 342 334 309 302 284 295 279 299 354 357 338 329 320 316 329 323 324 327 327 325 330 330 326 314 311 308 308 307 306 305 294 288 292 283 278 274 274 271 278 284 286
323 319 309 292 282 267 51 91 21 354 347 319 316 289 309 344 344 347 329 319 324 318 327 328 327 329 329 328 325 322 319 311 306 305 306 302 293 293 288 278 275 281 284 288 290 282 274 276 272
348 325 318 297 296 314 62 57 20 9 354 346 344 338 337 338 339 329 319 317 317 323 325 324 325 324 329 330 321 314 313 307 306 305 298 297 296 280 276 280 288 285 289 297 306 302 278 256 219
337 330 327 299 311 317 329 63 6 359 350 338 329 334 331 333 322 321 317 313 318 322 322 316 323 331 338 330 324 326 322 327 323 312 299 307 265 278 268 272 278 271 270 295 310 3 30 356 205
32 15 347 321 6 332 286 58 1 2 353 352 333 338 328 319 318 320 321 318 317 321 319 330 333 340 336 337 336 339 342 341 343 336 323 311 230 227 253 262 275 278 270 267 285 311 25 93 126
Height
3192 3193 3193 3192 3197 3191 3194 3200 3197 3197 3195 3190 3189 3190 3192 3191 3191 3194 3189 3189 3190 3189 3189 3190 3191 3192 3192 3193 3194 3195 3195 3195 3196 3196 3197 3198 3198 3199 3198 3199 3199 3200 3200 3200 3200 3200 3200 3200 3199
3192 3193 3194 3192 3191 3187 3198 3199 3200 3198 3194 3192 3191 3191 3192 3191 3190 3190 3191 3191 3192 3191 3191 3191 3192 3192 3192 3192 3192 3194 3195 3196 3197 3197 3198 3198 3198 3199 3199 3199 3199 3200 3200 3199 3200 3199 3199 3198 3198
3192 3193 3196 3196 3192 3193 3198 3200 3200 3198 3195 3195 3195 3193 3192 3191 3192 3192 3192 3193 3193 3192 3192 3192 3192 3193 3192 3192 3193 3194 3195 3195 3196 3197 3197 3197 3198 3198 3198 3199 3198 3199 3199 3199 3198 3197 3197 3197 3197
3192 3195 3197 3194 3193 3198 3199 3200 3200 3199 3197 3197 3198 3195 3195 3194 3193 3193 3193 3193 3193 3192 3191 3192 3192 3192 3193 3193 3193 3194 3194 3195 3195 3196 3197 3198 3199 3199 3199 3199 3199 3199 3199 3198 3198 3197 3196 3195 3194
3193 3195 3196 3195 3196 3199 3199 3199 3201 3201 3201 3200 3200 3198 3197 3196 3195 3195 3194 3194 3193 3192 3192 3193 3192 3192 3192 3193 3193 3193 3193 3193 3194 3195 3196 3197 3198 3198 3198 3198 3198 3198 3197 3196 3196 3195 3195 3194 3193
3196 3195 3194 3192 3198 3199 3198 3198 3201 3203 3202 3201 3200 3200 3199 3198 3196 3195 3195 3194 3193 3192 3192 3192 3192 3192 3192 3192 3191 3192 3191 3191 3192 3193 3194 3195 3196 3196 3196 3197 3196 3196 3195 3195 3194 3194 3193 3192 3191
3197 3196 3195 3196 3198 3200 3198 3199 3202 3203 3203 3200 3200 3200 3201 3201 3198 3195 3195 3195 3194 3193 3192 3191 3191 3191 3191 3190 3190 3190 3190 3190 3191 3192 3194 3194 3194 3194 3194 3195 3194 3194 3193 3192 3191 3189 3189 3188 3187
3195 3197 3197 3198 3198 3199 3197 3198 3198 3201 3198 3199 3200 3200 3201 3200 3198 3196 3196 3195 3194 3193 3192 3192 3191 3190 3188 3188 3188 3189 3189 3190 3190 3191 3192 3192 3192 3193 3193 3192 3192 3191 3190 3189 3187 3186 3186 3185 3184
3195 3197 3197 3199 3199 3199 3198 3198 3196 3196 3197 3198 3199 3200 3200 3199 3198 3196 3196 3195 3194 3194 3193 3191 3190 3189 3187 3187 3186 3188 3188 3190 3189 3189 3190 3190 3190 3190 3190 3189 3188 3187 3186 3186 3185 3183 3181 3180 3178
3198 3198 3199 3197 3199 3198 3198 3198 3196 3197 3196 3198 3199 3199 3199 3198 3198 3197 3197 3195 3195 3194 3193 3191 3189 3188 3187 3186 3187 3187 3183 3187 3188 3189 3188 3189 3188 3188 3187 3186 3184 3183 3182 3181 3180 3178 3177 3176 3173
3196 3197 3197 3197 3198 3198 3197 3196 3197 3196 3196 3197 3197 3198 3198 3198 3197 3195 3195 3195 3193 3192 3191 3189 3187 3186 3186 3184 3185 3185 3182 3184 3185 3184 3184 3184 3184 3183 3183 3181 3179 3178 3177 3176 3175 3173 3171 3168 3166
3196 3196 3197 3197 3198 3198 3197 3196 3195 3194 3194 3195 3196 3197 3197 3196 3195 3194 3193 3192 3191 3190 3189 3187 3185 3184 3183 3182 3181 3181 3181 3182 3181 3180 3180 3179 3179 3177 3177 3176 3174 3173 3171 3170 3168 3167 3163 3161 3160
3197 3197 3197 3197 3197 3197 3196 3194 3194 3194 3193 3195 3195 3195 3195 3194 3194 3192 3191 3190 3189 3188 3186 3185 3182 3182 3180 3180 3179 3179 3178 3177 3175 3175 3175 3174 3174 3172 3172 3169 3169 3167 3164 3162 3162 3160 3157 3154 3153
3197 3196 3196 3196 3196 3195 3194 3194 3194 3193 3193 3193 3193 3194 3192 3192 3190 3189 3188 3187 3186 3186 3185 3182 3180 3179 3178 3177 3176 3175 3174 3172 3169 3168 3167 3168 3166 3166 3164 3163 3161 3160 3158 3156 3155 3152 3150 3148 3148
3196 3197 3197 3197 3196 3196 3196 3195 3193 3193 3193 3193 3194 3194 3191 3189 3188 3187 3186 3185 3185 3184 3183 3181 3180 3178 3176 3175 3174 3172 3171 3167 3166 3163 3162 3161 3160 3159 3157 3156 3153 3150 3149 3146 3144 3144 3142 3142 3142
3201 3201 3201 3199 3198 3197 3197 3196 3194 3193 3192 3191 3189 3189 3190 3187 3186 3185 3185 3184 3183 3183 3181 3178 3177 3175 3173 3171 3169 3168 3166 3163 3159 3157 3156 3155 3153 3152 3150 3145 3143 3142 3141 3140 3138 3137 3135 3133 3134
3200 3199 3200 3200 3197 3197 3197 3193 3193 3192 3192 3191 3190 3187 3185 3185 3185 3184 3184 3182 3181 3179 3177 3175 3173 3171 3169 3167 3165 3163 3160 3158 3155 3152 3150 3147 3145 3144 3142 3140 3138 3136 3134 3132 3133 3130 3127 3126 3127
3197 3201 3201 3200 3198 3196 3193 3192 3191 3191 3191 3190 3188 3186 3186 3185 3184 3183 3182 3181 3179 3176 3174 3171 3169 3167 3164 3162 3159 3156 3153 3152 3148 3145 3142 3141 3138 3136 3134 3131 3130 3127 3124 3126 3126 3125 3120 3118 3118
3200 3201 3199 3197 3196 3196 3193 3190 3190 3190 3190 3188 3188 3187 3186 3184 3183 3182 3181 3179 3176 3174 3172 3170 3166 3163 3160 3156 3153 3150 3146 3142 3139 3137 3134 3132 3129 3126 3123 3122 3120 3121 3120 3120 3119 3117 3114 3112 3111
3201 3200 3199 3196 3195 3195 3192 3191 3188 3189 3188 3187 3187 3187 3187 3186 3183 3182 3181 3179 3176 3174 3171 3167 3163 3160 3157 3152 3148 3144 3140 3136 3132 3126 3124 3121 3119 3117 3115 3113 3112 3112 3113 3114 3112 3110 3107 3106 3107
3201 3200 3199 3198 3194 3193 3190 3189 3186 3187 3186 3186 3187 3187 3186 3185 3184 3182 3179 3177 3174 3171 3168 3165 3162 3158 3153 3149 3144 3139 3134 3131 3126 3123 3119 3114 3111 3109 3107 3106 3105 3105 3106 3106 3105 3104 3101 3102 3102
3197 3199 3198 3195 3194 3189 3189 3187 3184 3183 3184 3185 3185 3185 3185 3184 3182 3179 3177 3175 3172 3169 3165 3162 3159 3155 3150 3144 3139 3133 3129 3125 3120 3116 3112 3110 3105 3104 3102 3100 3100 3099 3099 3099 3099 3098 3099 3098 3098
3200 3198 3196 3194 3192 3191 3187 3189 3183 3184 3183 3183 3184 3183 3183 3182 3180 3178 3176 3173 3169 3166 3162 3159 3155 3150 3144 3138 3133 3129 3124 3120 3116 3111 3107 3103 3100 3097 3098 3095 3095 3094 3094 3094 3094 3093 3093 3093 3093
3198 3196 3193 3191 3189 3182 3183 3186 3184 3185 3186 3184 3182 3182 3181 3179 3178 3176 3173 3170 3167 3164 3160 3154 3150 3144 3137 3132 3127 3122 3118 3115 3111 3107 3103 3100 3097 3094 3094 3092 3092 3090 3090 3089 3089 3089 3088 3088 3088
3197 3194 3187 3182 3178 3173 3180 3183 3187 3184 3183 3184 3182 3179 3178 3176 3173 3171 3172 3169 3165 3161 3156 3151 3144 3138 3133 3126 3121 3117 3114 3111 3107 3104 3100 3097 3094 3092 3090 3089 3087 3087 3086 3085 3084 3084 3084 3084 3083
3196 3195 3189 3185 3178 3177 3178 3178 3184 3184 3183 3183 3181 3179 3177 3175 3172 3170 3169 3165 3162 3156 3151 3146 3140 3133 3127 3122 3117 3113 3110 3106 3103 3100 3097 3094 3091 3088 3086 3085 3084 3083 3082 3081 3080 3080 3080 3080 3080
3195 3193 3193 3188 3180 3177 3174 3182 3184 3183 3182 3180 3179 3178 3176 3173 3170 3168 3166 3161 3157 3151 3144 3139 3133 3127 3122 3118 3114 3110 3106 3102 3098 3094 3091 3088 3086 3085 3083 3081 3080 3079 3079 3078 3076 3076 3076 3076 3077
3195 3193 3190 3184 3180 3176 3170 3179 3186 3185 3182 3180 3179 3177 3174 3172 3169 3166 3162 3157 3152 3146 3141 3134 3128 3122 3118 3115 3110 3106 3101 3095 3090 3086 3085 3083 3082 3080 3079 3078 3078 3077 3077 3076 3075 3073 3072 3072 3073
3195 3192 3191 3188 3187 3179 3173 3186 3187 3186 3183 3181 3178 3176 3174 3171 3168 3164 3159 3154 3148 3144 3138 3130 3124 3119 3115 3111 3106 3100 3094 3088 3084 3080 3076 3075 3076 3076 3075 3075 3075 3075 3074 3075 3073 3072 3070 3070 3071
3195 3193 3191 3187 3187 3187 3183 3189 3187 3186 3183 3180 3178 3175 3173 3170 3165 3160 3156 3151 3144 3139 3132 3126 3121 3118 3113 3107 3101 3095 3091 3085 3079 3074 3071 3069 3070 3071 3073 3073 3073 3072 3072 3072 3073 3072 3072 3072 3073